WGS F3 (USA 211)

Last updated on Thu Nov 21 2024 00:02:41 GMT+0000 (Coordinated Universal Time)

1 36108U 09068A 24325.38319403 .00000052 00000+0 00000+0 0 9993 2 36108 0.1933 89.2573 0000904 189.5685 98.8031 1.00268847 40846
UTC large
Height (km)
Speed (km/s)
/
Latitude / Longitude
Inclination (degrees)
Orbital Period (minutes)
Azimuth
Elevation
Range (km)
Doppler Factor

Next 0 passes for location: London (51.5072 / 0.1276)

Sorry there are no passes over London.